• în România
  • Lista ţărilor
  • Pe 7 zile
  • Temperatura apei
  • Hartă satelitară
  • Meteo pe hartă
  • Widget-uri
  • user-avatar
    Intrare

    Meteo pe oră la Nagutskoe

    Astăzi, 17 Octombrie, Miercuri

    Timp Temperatura Precipitaţii Vânt Presiune Umiditate
    00:00 +12°C° 0 mm 4 m/s 728 mmHg 75%
    01:00 +12°C° 0 mm 4 m/s 728 mmHg 77%
    02:00 +11°C° 0 mm 3 m/s 728 mmHg 80%
    03:00 +11°C° 0 mm 3 m/s 728 mmHg 84%
    04:00 +11°C° 0 mm 3 m/s 728 mmHg 85%
    05:00 +10°C° 0 mm 3 m/s 728 mmHg 87%
    06:00 +10°C° 0 mm 3 m/s 728 mmHg 89%
    07:00 +11°C° 0 mm 3 m/s 728 mmHg 83%
    08:00 +13°C° 0 mm 4 m/s 728 mmHg 77%
    09:00 +14°C° 0 mm 4 m/s 728 mmHg 71%
    10:00 +17°C° 0 mm 4 m/s 728 mmHg 65%
    11:00 +17°C° 0 mm 5 m/s 728 mmHg 59%
    12:00 +20°C° 0 mm 5 m/s 728 mmHg 52%
    13:00 +20°C° 0 mm 5 m/s 728 mmHg 52%
    14:00 +21°C° 0 mm 6 m/s 727 mmHg 51%
    15:00 +21°C° 0 mm 6 m/s 727 mmHg 50%
    16:00 +19°C° 0 mm 5 m/s 727 mmHg 56%
    17:00 +18°C° 0 mm 4 m/s 727 mmHg 62%
    18:00 +17°C° 0 mm 4 m/s 727 mmHg 68%
    19:00 +15°C° 0 mm 4 m/s 727 mmHg 71%
    20:00 +14°C° 0 mm 4 m/s 727 mmHg 75%
    21:00 +14°C° 0 mm 3 m/s 727 mmHg 78%
    22:00 +13°C° 0 mm 3 m/s 727 mmHg 82%
    23:00 +13°C° 0 mm 3 m/s 727 mmHg 86%

    Mâine, 18 Octombrie, Joi

    Timp Temperatura Precipitaţii Vânt Presiune Umiditate
    00:00 +12°C° 0 mm 3 m/s 726 mmHg 90%
    01:00 +12°C° 0 mm 3 m/s 726 mmHg 90%
    02:00 +12°C° 0 mm 3 m/s 726 mmHg 91%
    03:00 +11°C° 0 mm 3 m/s 726 mmHg 92%
    04:00 +11°C° 0 mm 3 m/s 726 mmHg 92%
    05:00 +11°C° 0 mm 3 m/s 726 mmHg 91%
    06:00 +11°C° 0 mm 3 m/s 726 mmHg 91%
    07:00 +12°C° 0 mm 3 m/s 726 mmHg 88%
    08:00 +12°C° 0 mm 4 m/s 726 mmHg 86%
    09:00 +13°C° 0 mm 4 m/s 726 mmHg 83%
    10:00 +14°C° 0 mm 4 m/s 726 mmHg 78%
    11:00 +15°C° 0 mm 4 m/s 726 mmHg 73%
    12:00 +16°C° 0 mm 5 m/s 726 mmHg 68%
    13:00 +16°C° 0 mm 5 m/s 726 mmHg 65%
    14:00 +17°C° 0 mm 5 m/s 726 mmHg 62%
    15:00 +19°C° 0 mm 5 m/s 726 mmHg 59%
    16:00 +16°C° 0 mm 5 m/s 726 mmHg 65%
    17:00 +15°C° 0 mm 5 m/s 726 mmHg 71%
    18:00 +14°C° 0 mm 4 m/s 725 mmHg 77%
    19:00 +13°C° 0 mm 4 m/s 725 mmHg 78%
    20:00 +13°C° 0 mm 4 m/s 725 mmHg 80%
    21:00 +13°C° 0 mm 4 m/s 725 mmHg 81%
    22:00 +12°C° 0 mm 4 m/s 725 mmHg 84%
    23:00 +12°C° 0 mm 4 m/s 725 mmHg 86%

    Poimâine, 19 Octombrie, Vineri

    Timp Temperatura Precipitaţii Vânt Presiune Umiditate
    00:00 +12°C° 0 mm 4 m/s 725 mmHg 89%
    01:00 +12°C° 0 mm 4 m/s 725 mmHg 89%
    02:00 +11°C° 0 mm 4 m/s 725 mmHg 90%
    03:00 +11°C° 0 mm 4 m/s 725 mmHg 91%
    04:00 +11°C° 0 mm 4 m/s 725 mmHg 90%
    05:00 +11°C° 0 mm 4 m/s 725 mmHg 89%
    06:00 +11°C° 0 mm 4 m/s 725 mmHg 88%
    07:00 +12°C° 0 mm 4 m/s 725 mmHg 84%
    08:00 +13°C° 0 mm 5 m/s 725 mmHg 80%
    09:00 +14°C° 0 mm 5 m/s 725 mmHg 75%
    10:00 +15°C° 0 mm 5 m/s 725 mmHg 71%
    11:00 +16°C° 0 mm 5 m/s 725 mmHg 66%
    12:00 +19°C° 0 mm 5 m/s 725 mmHg 61%
    13:00 +19°C° 0 mm 5 m/s 724 mmHg 60%
    14:00 +19°C° 0 mm 5 m/s 724 mmHg 59%
    15:00 +20°C° 0 mm 5 m/s 724 mmHg 57%
    16:00 +18°C° 0 mm 4 m/s 724 mmHg 64%
    17:00 +17°C° 0 mm 4 m/s 724 mmHg 70%
    18:00 +16°C° 0 mm 3 m/s 724 mmHg 76%
    19:00 +14°C° 0 mm 3 m/s 724 mmHg 78%
    20:00 +14°C° 0 mm 3 m/s 724 mmHg 80%
    21:00 +13°C° 0 mm 3 m/s 724 mmHg 82%
    22:00 +13°C° 0 mm 3 m/s 723 mmHg 82%
    23:00 +13°C° 0 mm 3 m/s 723 mmHg 82%

    20 Octombrie, Sâmbătă

    Timp Temperatura Precipitaţii Vânt Presiune Umiditate
    00:00 +13°C° 0 mm 2 m/s 723 mmHg 83%
    01:00 +13°C° 0 mm 2 m/s 723 mmHg 82%
    02:00 +13°C° 0 mm 2 m/s 723 mmHg 81%
    03:00 +13°C° 0 mm 2 m/s 723 mmHg 80%
    04:00 +13°C° 0 mm 2 m/s 722 mmHg 78%
    05:00 +13°C° 0 mm 1 m/s 722 mmHg 77%
    06:00 +13°C° 0 mm 1 m/s 722 mmHg 75%
    07:00 +14°C° 0 mm 1 m/s 722 mmHg 68%
    08:00 +16°C° 0 mm 1 m/s 723 mmHg 61%
    09:00 +18°C° 0 mm 1 m/s 723 mmHg 54%
    10:00 +20°C° 0 mm 1 m/s 723 mmHg 47%
    11:00 +22°C° 0 mm 1 m/s 723 mmHg 40%
    12:00 +24°C° 0 mm 1 m/s 723 mmHg 32%
    13:00 +25°C° 0 mm 2 m/s 723 mmHg 32%
    14:00 +25°C° 0 mm 2 m/s 723 mmHg 32%
    15:00 +26°C° 0 mm 2 m/s 723 mmHg 31%
    16:00 +24°C° 0 mm 2 m/s 723 mmHg 37%
    17:00 +22°C° 0 mm 1 m/s 723 mmHg 42%
    18:00 +20°C° 0 mm 1 m/s 723 mmHg 48%
    19:00 +19°C° 0 mm 1 m/s 723 mmHg 50%
    20:00 +19°C° 0 mm 1 m/s 723 mmHg 51%
    21:00 +18°C° 0 mm 1 m/s 723 mmHg 53%
    22:00 +18°C° 0 mm 1 m/s 722 mmHg 54%
    23:00 +16°C° 0 mm 0 m/s 722 mmHg 54%

    21 Octombrie, Duminică

    Timp Temperatura Precipitaţii Vânt Presiune Umiditate
    00:00 +15°C° 0 mm 0 m/s 722 mmHg 55%
    01:00 +15°C° 0 mm 0 m/s 722 mmHg 55%
    02:00 +15°C° 0 mm 0 m/s 722 mmHg 54%
    03:00 +15°C° 0 mm 0 m/s 722 mmHg 54%
    04:00 +15°C° 0 mm 0 m/s 722 mmHg 54%
    05:00 +15°C° 0 mm 0 m/s 722 mmHg 54%
    06:00 +15°C° 0 mm 0 m/s 722 mmHg 54%
    07:00 +18°C° 0 mm 1 m/s 722 mmHg 52%
    08:00 +19°C° 0 mm 1 m/s 722 mmHg 50%
    09:00 +20°C° 0 mm 1 m/s 722 mmHg 47%
    10:00 +20°C° 0 mm 2 m/s 722 mmHg 43%
    11:00 +23°C° 0 mm 2 m/s 722 mmHg 40%
    12:00 +24°C° 0 mm 3 m/s 722 mmHg 36%
    13:00 +24°C° 0 mm 3 m/s 721 mmHg 36%
    14:00 +24°C° 0 mm 3 m/s 721 mmHg 37%
    15:00 +23°C° 0 mm 4 m/s 721 mmHg 38%
    16:00 +22°C° 0 mm 3 m/s 721 mmHg 42%
    17:00 +20°C° 0 mm 3 m/s 721 mmHg 47%
    18:00 +19°C° 0 mm 3 m/s 721 mmHg 52%
    19:00 +18°C° 0 mm 2 m/s 721 mmHg 56%
    20:00 +17°C° 0 mm 2 m/s 720 mmHg 59%
    21:00 +17°C° 0 mm 2 m/s 720 mmHg 63%
    22:00 +16°C° 0 mm 2 m/s 720 mmHg 66%
    23:00 +16°C° 0 mm 2 m/s 720 mmHg 68%

    22 Octombrie, Luni

    Timp Temperatura Precipitaţii Vânt Presiune Umiditate
    00:00 +16°C° 0 mm 1 m/s 720 mmHg 71%
    01:00 +15°C° 0 mm 1 m/s 720 mmHg 73%
    02:00 +15°C° 0 mm 1 m/s 720 mmHg 76%
    03:00 +15°C° 0 mm 1 m/s 720 mmHg 78%
    04:00 +14°C° 0 mm 1 m/s 720 mmHg 81%
    05:00 +14°C° 0 mm 1 m/s 720 mmHg 85%
    06:00 +13°C° 0 mm 1 m/s 720 mmHg 88%
    07:00 +14°C° 0 mm 1 m/s 720 mmHg 84%
    08:00 +15°C° 0 mm 1 m/s 720 mmHg 81%
    09:00 +16°C° 0 mm 1 m/s 721 mmHg 78%
    10:00 +18°C° 0 mm 1 m/s 721 mmHg 73%
    11:00 +19°C° 0 mm 1 m/s 721 mmHg 69%
    12:00 +18°C° 0 mm 2 m/s 721 mmHg 65%
    13:00 +19°C° 0 mm 2 m/s 721 mmHg 64%
    14:00 +19°C° 0 mm 2 m/s 722 mmHg 63%
    15:00 +19°C° 0 mm 2 m/s 722 mmHg 62%
    16:00 +18°C° 0 mm 2 m/s 722 mmHg 67%
    17:00 +18°C° 0 mm 1 m/s 722 mmHg 72%
    18:00 +16°C° 0 mm 1 m/s 722 mmHg 77%
    19:00 +16°C° 0 mm 1 m/s 723 mmHg 80%
    20:00 +15°C° 0 mm 1 m/s 723 mmHg 82%
    21:00 +15°C° 0 mm 1 m/s 723 mmHg 85%
    22:00 +14°C° 0 mm 1 m/s 723 mmHg 86%
    23:00 +14°C° 0 mm 1 m/s 723 mmHg 87%
    Arată mai mult